fecha-hora | temperatura | viento dirección-velocidad-rachas | humedad | presión

  • 11-04-2019 21:00:00 | -0.20°C | Norte-17.00 km/h - 33.00 km/h | 90.00% | 811.30 hPa
  • 11-04-2019 20:00:00 | 0.70°C | Norte-13.00 km/h - 31.00 km/h | 86.00% | 811.00 hPa
  • 11-04-2019 19:00:00 | 1.60°C | Norte-14.00 km/h - 32.00 km/h | 81.00% | 811.10 hPa
  • 11-04-2019 18:00:00 | 1.90°C | Norte-13.00 km/h - 26.00 km/h | 87.00% | 811.20 hPa
  • 11-04-2019 17:00:00 | 2.50°C | Norte-14.00 km/h - 31.00 km/h | 85.00% | 811.10 hPa
  • 11-04-2019 16:00:00 | 1.70°C | Norte-10.00 km/h - 33.00 km/h | 85.00% | 811.20 hPa
  • 11-04-2019 15:00:00 | 1.90°C | Norte-13.00 km/h - 30.00 km/h | 86.00% | 811.20 hPa
  • 11-04-2019 14:00:00 | 1.80°C | Norte-16.00 km/h - 29.00 km/h | 87.00% | 811.30 hPa
  • 11-04-2019 13:00:00 | 1.00°C | Norte-13.00 km/h - 29.00 km/h | 96.00% | 811.40 hPa
  • 11-04-2019 12:00:00 | 0.10°C | Norte-12.00 km/h - 23.00 km/h | 99.00% | 811.20 hPa
  • 11-04-2019 11:00:00 | -0.50°C | Norte-13.00 km/h - 32.00 km/h | 100.00% | 811.00 hPa
  • 11-04-2019 10:00:00 | -1.40°C | Norte-15.00 km/h - 26.00 km/h | 100.00% | 810.80 hPa
  • 11-04-2019 09:00:00 | -2.50°C | Norte-13.00 km/h - 28.00 km/h | 100.00% | 810.40 hPa
  • 11-04-2019 08:00:00 | -3.00°C | Norte-14.00 km/h - 23.00 km/h | 100.00% | 810.00 hPa
  • 11-04-2019 07:00:00 | -3.20°C | Norte-13.00 km/h - 26.00 km/h | 100.00% | 809.70 hPa
  • 11-04-2019 06:00:00 | -2.70°C | Noroeste-13.00 km/h - 24.00 km/h | 100.00% | 809.70 hPa
  • 11-04-2019 05:00:00 | -2.80°C | Norte-14.00 km/h - 26.00 km/h | 100.00% | 809.60 hPa
  • 11-04-2019 04:00:00 | -1.90°C | Norte-10.00 km/h - 30.00 km/h | 100.00% | 809.40 hPa
  • 11-04-2019 03:00:00 | -1.50°C | Norte-13.00 km/h - 35.00 km/h | 100.00% | 809.50 hPa
  • 11-04-2019 02:00:00 | -1.20°C | Norte-12.00 km/h - 26.00 km/h | 100.00% | 809.80 hPa
  • 11-04-2019 01:00:00 | -0.90°C | Norte-14.00 km/h - 26.00 km/h | 100.00% | 809.80 hPa
  • 11-04-2019 00:00:00 | -0.60°C | Nordeste-10.00 km/h - 30.00 km/h | 100.00% | 809.90 hPa
  • 10-04-2019 23:00:00 | -0.50°C | Norte-10.00 km/h - 28.00 km/h | 100.00% | 809.70 hPa
  • 10-04-2019 22:00:00 | -0.70°C | Nordeste-9.00 km/h - 24.00 km/h | 100.00% | 809.10 hPa
    • diseño web asturias Información sobre el estado de las mareas, altura de la marejada, temperatura del agua y otros datos de Gijón en Asturias.

      Surf Gijón